CAPE
0 0 0 0 0 0 0 0 0 0 0 0 0 0 0 0 0 0 0 0 0 0 0 12 14 0 27 339 553 606 582 529 519 534 524 498 477 392 469 497 498 490 568 613 666 711 787 810 860 940 919 886 954 927 1020 1146 1189 1143 1158 1274 1208 1105 1064 1194 1361 1381 1350 1453 1498 1332 1219 1462 1639 1572 1475 1402 1299 1634 1761 1826 1830 1933 2077 2060 2198 2220
0 0 0 0 0 0 0 0 0 0 0 0 0 0 0 0 0 0 0 0 0 0 0 4 132 3 13 189 496 574 570 553 536 532 519 515 472 391 421 451 498 508 460 519 638 649 692 747 783 867 923 950 1049 1012 1034 1159 1240 1242 1215 1295 1293 1258 1116 1173 1327 1407 1374 1410 1494 1464 1263 1354 1665 1688 1629 1556 1400 1630 1791 1849 1818 1860 1976 1902 2057 2239
0 0 0 0 0 0 0 0 0 0 0 0 0 0 0 0 0 0 0 0 0 0 0 0 4 5 23 77 286 516 536 556 540 524 522 497 451 348 356 378 417 470 477 475 548 628 659 650 694 752 866 968 1093 1115 1081 1156 1245 1285 1278 1304 1323 1358 1234 1160 1260 1372 1399 1378 1448 1482 1355 1289 1500 1712 1718 1692 1590 1515 1770 1875 1853 1821 1878 1937 1932 2148
0 0 0 0 0 0 0 0 0 0 0 0 0 0 0 0 0 0 0 0 0 0 0 0 0 2 17 43 120 407 493 517 503 507 505 483 453 363 352 348 345 271 440 477 517 558 569 581 663 663 741 908 1067 1168 1139 1168 1263 1299 1335 1335 1329 1409 1344 1214 1218 1475 1401 1396 1420 1530 1506 1378 1400 1566 1638 1643 1638 1559 1582 1814 1896 1962 1832 1971 1933 2000
0 0 0 0 0 0 0 0 0 0 0 0 0 0 0 0 0 0 0 0 0 0 0 0 0 9 14 18 16 78 388 379 448 467 478 458 366 355 370 358 342 350 280 423 477 526 548 533 653 656 670 819 981 1130 1171 1201 1273 1320 1373 1373 1377 1472 1416 1283 1301 1370 1348 1366 1377 1550 1637 1581 1434 1463 1582 1594 1552 1511 1500 1648 1847 1996 2014 1934 2042 1963
0 0 0 0 0 0 0 0 0 0 0 0 0 0 0 0 0 0 0 0 0 0 0 0 4 3 6 11 32 18 62 187 382 421 433 437 270 209 216 294 370 385 361 293 448 514 546 535 590 625 641 743 896 1038 1139 1222 1296 1345 1381 1392 1376 1510 1505 1392 1242 1246 1241 1256 1261 1391 1518 1538 1454 1411 1497 1574 1479 1493 1580 1603 1750 1961 2090 2018 2016 2059
0 0 0 0 0 0 0 0 0 0 0 0 0 0 0 0 0 0 0 0 0 0 0 0 0 0 0 4 0 0 10 93 86 195 397 399 398 344 230 321 349 391 398 386 387 501 531 542 532 568 605 674 828 958 1080 1193 1280 1334 1387 1422 1406 1498 1562 1498 1340 1206 1274 1154 1146 1187 1262 1265 1270 1310 1379 1500 1428 1439 1532 1579 1675 1934 2070 2088 1994 2077
0 0 0 0 0 0 0 0 0 0 0 0 0 0 0 0 0 0 0 0 0 0 0 0 0 0 0 0 0 0 0 9 25 52 281 336 349 368 233 298 356 380 393 392 418 478 531 554 554 571 593 608 749 891 993 1115 1217 1280 1319 1373 1415 1478 1578 1573 1494 1286 1228 1126 1124 1123 1133 1151 1182 1172 1262 1358 1428 1421 1445 1512 1684 1869 2036 2080 2065 2032
0 0 0 0 0 0 0 0 0 0 0 0 0 0 0 0 0 0 0 0 0 0 0 0 0 0 0 0 0 0 1 2 7 10 58 116 142 171 202 296 394 400 414 405 400 430 498 549 565 568 579 486 548 801 943 1051 1138 1190 1219 1276 1346 1419 1513 1574 1551 1506 1322 1246 1152 1113 1118 1160 1227 1208 1220 1301 1378 1386 1384 1467 1752 1873 1999 2058 2089 2056
0 0 0 0 0 0 0 0 0 0 0 0 0 0 0 0 0 0 0 0 4 6 0 0 0 0 0 0 0 0 0 0 12 19 27 38 80 104 152 288 412 439 431 422 404 400 440 495 539 491 486 600 636 696 856 1008 1088 1130 1150 1194 1253 1327 1391 1462 1508 1520 1496 1358 1240 1134 1118 1144 1220 1244 1271 1306 1337 1334 1295 1372 1678 1878 1989 2032 2055 2080
0 0 0 0 0 0 0 0 0 0 0 0 0 0 0 0 0 0 0 5 20 0 0 0 0 0 0 0 0 0 33 68 35 25 11 17 28 170 294 341 407 462 469 456 427 406 416 466 504 525 524 538 603 651 750 893 1008 1084 1106 1134 1160 1244 1323 1372 1422 1460 1465 1396 1277 1160 1113 1119 1168 1218 1265 1280 1325 1308 1230 1295 1445 1783 1961 2026 2037 2035
0 0 0 0 0 0 0 0 0 0 0 0 0 0 0 0 0 0 0 12 5 0 0 0 0 0 0 0 0 0 34 42 34 42 18 6 11 50 209 280 333 441 477 479 452 418 394 421 482 485 482 479 413 552 714 816 906 1010 1059 1078 1110 1174 1273 1321 1338 1379 1392 1347 1286 1199 1134 1116 1131 1175 1203 1228 1269 1302 1238 1239 1324 1566 1838 2001 2033 2024
0 0 0 0 0 0 0 0 0 0 0 0 0 0 0 0 0 0 0 0 0 0 0 0 0 0 0 0 0 0 6 44 68 67 36 14 31 31 35 215 268 370 448 470 476 445 412 220 239 257 436 476 507 411 578 777 844 930 996 1038 1067 1127 1219 1295 1284 1340 1367 1338 1304 1243 1182 1153 1148 1136 1162 1171 1169 1226 1220 1189 1218 1321 1684 1875 1990 2002
0 0 0 0 0 0 0 0 0 0 0 0 0 0 0 0 0 0 0 0 0 0 0 0 0 0 0 0 0 0 0 74 73 38 11 17 39 42 41 150 222 320 404 457 497 411 449 237 226 244 302 474 514 550 504 734 809 883 946 992 1032 1091 1177 1265 1268 1294 1321 1294 1266 1257 1216 1182 1158 1154 1141 1142 1105 1112 1156 1115 1101 1118 1432 1690 1851 1926
0 0 0 0 0 0 0 0 0 0 0 0 0 0 0 0 0 0 0 0 0 0 0 0 0 0 0 0 0 0 0 3 22 19 3 4 27 53 58 44 65 258 375 446 486 533 513 461 351 244 274 300 502 349 587 679 779 845 926 970 1016 1059 1124 1218 1258 1274 1280 1258 1229 1231 1216 1180 1162 1168 1136 1126 1084 1042 1048 1048 937 922 1153 1459 1685 1815
0 0 0 0 0 0 0 0 0 0 0 0 0 0 0 0 0 0 0 0 0 0 0 0 0 0 0 0 0 0 0 0 0 1 0 0 4 29 53 40 51 201 306 409 484 545 558 535 490 234 268 297 302 352 449 530 731 806 894 962 1034 1058 1088 1187 1247 1268 1272 1251 1227 1222 1214 1186 1164 1157 1134 1106 1099 1057 1016 960 916 842 917 1258 1477 1689
0 0 0 0 0 0 0 0 0 0 0 0 0 0 0 0 0 0 0 0 0 0 0 0 0 0 0 0 0 0 0 0 0 0 0 0 0 9 20 31 46 117 278 392 477 518 576 579 550 246 268 303 325 432 532 530 634 763 857 934 1031 1065 1071 1138 1218 1270 1268 1261 1231 1230 1224 1208 1175 1150 1140 1106 1104 1099 1038 1004 963 879 787 1059 1295 1499
0 0 0 0 0 0 0 0 0 0 0 0 0 0 0 0 0 0 0 0 0 0 0 0 0 0 0 0 0 0 0 0 0 0 0 0 0 0 4 28 55 146 281 383 436 504 573 586 578 545 304 304 330 390 456 562 579 714 826 892 984 1058 1068 1098 1176 1239 1264 1260 1234 1224 1224 1210 1192 1171 1143 1084 1057 1142 1110 1068 1074 1011 908 950 1211 1376
0 0 0 0 0 0 0 0 0 0 0 0 0 0 0 0 0 0 0 0 0 0 0 0 0 0 0 0 0 0 0 0 0 0 0 0 0 5 15 36 88 156 344 477 539 486 576 596 584 361 555 585 336 442 485 570 641 726 805 859 918 1012 1042 1072 1135 1198 1239 1258 1246 1238 1232 1224 1225 1178 1113 1083 1019 1083 1220 1166 1134 1074 1086 982 1202 1438
0 0 0 0 0 0 0 0 0 0 0 0 0 0 0 0 0 0 0 0 0 0 0 0 0 0 0 0 0 0 0 0 0 0 0 0 0 14 36 46 105 234 294 521 609 647 655 646 637 615 608 628 654 605 584 607 726 756 809 877 902 961 1016 1054 1110 1163 1208 1223 1222 1204 1199 1213 1207 1173 1097 1063 1050 1013 1214 1329 1157 1084 1175 1181 1252 1488
0 0 0 0 0 0 0 0 0 0 0 0 0 0 0 0 0 0 0 0 0 0 0 0 0 0 0 0 0 0 0 0 0 0 0 0 0 2 40 71 88 242 391 522 663 733 754 735 699 697 681 681 672 654 608 654 755 796 820 897 932 950 1028 1060 1071 1113 1156 1170 1191 1176 1171 1171 1175 1166 1105 1053 1064 1052 1027 1269 1404 1200 1179 1302 1335 1507
0 0 0 0 0 0 0 0 0 0 0 0 0 0 0 0 0 0 0 0 0 0 0 0 0 0 0 0 0 0 0 0 0 0 0 0 0 0 29 84 120 197 364 494 655 776 832 822 791 772 754 735 734 692 649 749 808 858 863 915 971 962 1009 1075 1091 1101 1125 1128 1141 1155 1136 1119 1121 1133 1128 1078 1087 1127 1072 1035 1292 1500 1411 1372 1480 1571
0 0 0 0 0 0 0 0 0 0 0 0 0 0 0 0 0 0 0 0 0 0 0 0 0 0 0 0 0 0 0 0 0 0 0 0 0 2 12 99 170 216 337 475 612 772 854 884 866 836 813 797 795 758 738 837 904 952 948 963 1041 1034 1031 1082 1128 1121 1132 1126 1127 1131 1128 1105 1086 1100 1128 1121 1114 1151 1169 1122 1096 1338 1560 1552 1507 1646
0 0 0 0 0 0 0 0 0 0 0 0 0 0 0 0 0 0 0 0 0 0 0 0 0 0 0 0 0 0 0 0 0 0 0 0 0 2 0 56 196 269 318 474 584 730 853 907 923 868 862 849 844 829 779 924 968 1044 1083 1082 1122 1137 1108 1091 1160 1200 1210 1187 1147 1143 1148 1144 1124 1107 1133 1154 1154 1172 1222 1235 1205 1295 1506 1608 1576 1592
0 0 0 0 0 0 0 0 0 0 0 0 0 0 0 0 0 0 0 0 0 0 0 0 0 0 0 0 0 0 0 0 0 0 0 0 0 4 10 37 212 432 479 519 552 690 816 887 937 959 964 949 929 913 851 988 1048 1124 1213 1233 1248 1266 1235 1199 1199 1258 1299 1285 1239 1198 1192 1194 1181 1167 1158 1179 1191 1211 1246 1309 1330 1364 1530 1641 1662 1613
0 0 0 0 0 0 0 0 0 0 0 0 0 0 0 0 0 0 0 0 0 0 0 0 0 0 0 0 0 0 0 0 0 0 0 0 0 4 43 88 225 484 578 610 631 706 797 880 953 1025 1054 1024 993 954 953 1080 1143 1217 1311 1372 1398 1421 1400 1364 1319 1326 1361 1392 1375 1323 1271 1252 1239 1219 1206 1210 1226 1240 1258 1314 1378 1413 1540 1696 1778 1757
0 0 0 0 0 0 0 0 0 0 0 0 0 0 0 0 0 0 0 0 0 0 0 0 0 0 0 0 0 0 0 0 0 0 0 0 0 0 53 143 213 507 642 693 718 769 838 883 958 1028 1080 1092 1070 1011 1093 1206 1270 1326 1408 1492 1541 1580 1572 1551 1502 1468 1448 1477 1495 1487 1423 1357 1326 1290 1271 1278 1270 1265 1269 1285 1353 1421 1469 1634 1824 1898
0 0 0 0 0 0 0 0 0 0 0 0 0 0 0 0 0 0 0 0 0 0 0 0 0 0 0 0 0 0 0 0 0 0 0 0 0 10 106 180 581 465 611 699 744 803 870 952 1015 1048 1098 1122 1111 1096 1136 1298 1413 1468 1524 1603 1675 1718 1740 1718 1682 1646 1607 1574 1575 1600 1595 1537 1460 1422 1387 1348 1362 1344 1323 1314 1314 1378 1424 1469 1677 1912
0 0 0 0 0 0 0 0 0 0 0 0 0 0 0 0 0 0 0 0 0 0 0 0 0 0 0 0 0 0 0 0 0 0 0 0 0 55 124 328 404 440 548 674 787 844 905 984 1042 1094 1133 1159 1155 1118 1149 1335 1482 1600 1674 1730 1804 1860 1885 1877 1843 1816 1779 1731 1702 1685 1699 1696 1649 1603 1566 1508 1468 1462 1423 1392 1363 1362 1381 1401 1436 1616
0 0 0 0 0 0 0 0 0 0 0 0 0 0 0 0 0 0 0 0 0 0 0 0 0 0 0 0 0 0 0 0 0 0 0 0 0 52 112 360 444 461 537 661 794 881 929 985 1037 1093 1139 1194 1202 1174 1177 1330 1501 1648 1784 1878 1948 1990 2006 1998 1982 1962 1936 1914 1871 1829 1798 1794 1796 1767 1737 1716 1644 1602 1572 1521 1477 1442 1409 1407 1396 1394
0 0 0 0 0 0 0 0 0 0 0 0 0 0 0 0 0 0 0 0 0 0 0 0 0 0 0 0 0 0 0 0 0 0 0 0 0 24 73 229 446 507 572 652 766 869 928 987 1039 1056 1110 1194 1245 1230 1214 1298 1478 1640 1794 1931 2046 2116 2164 2150 2140 2108 2093 2074 2042 2019 1985 1946 1929 1909 1904 1884 1831 1707 1721 1695 1641 1580 1512 1458 1441 1421
0 0 0 0 0 0 0 0 0 0 0 1 0 0 0 0 0 0 0 32 0 0 0 0 0 0 0 0 0 0 0 0 0 0 0 0 0 2 39 112 422 526 596 665 745 830 892 980 1030 1066 1110 1174 1254 1274 1260 1284 1397 1575 1780 1938 2075 2198 2308 2330 2299 2260 2229 2216 2206 2195 2165 2137 2106 2077 2060 2034 1999 1901 1813 1804 1786 1745 1687 1616 1549 1496
4 0 0 0 0 0 0 0 0 8 41 19 1 0 0 20 10 17 4 6 1 0 0 0 0 0 0 0 0 0 114 901 1193 708 6 0 0 5 23 112 444 550 625 698 760 814 886 969 1038 1094 1148 1179 1235 1294 1320 1352 1438 1566 1717 1887 2037 2192 2358 2465 2479 2442 2400 2376 2369 2340 2319 2301 2267 2242 2218 2197 2140 2085 2012 1892 1859 1832 1795 1757 1699 1630
6 1 1 0 0 0 0 0 0 30 22 11 164 0 0 0 0 18 3 0 0 0 0 0 0 0 0 0 0 862 1816 1893 1930 1797 1731 339 0 3 14 58 428 552 633 715 778 845 912 964 1017 1090 1196 1254 1278 1319 1390 1495 1582 1650 1712 1833 2005 2196 2365 2519 2599 2614 2585 2558 2523 2489 2454 2419 2394 2378 2362 2325 2336 2336 2288 2190 2031 1887 1850 1810 1763 1740
7 2 2 0 0 1 0 0 11 16 8 4 66 0 0 0 0 0 1 0 0 0 0 0 81 739 1636 2038 2104 1946 1947 1902 1964 2100 2248 2116 1287 518 599 597 445 573 663 711 781 858 926 967 998 1073 1253 1339 1364 1427 1596 1724 1796 1844 1897 1987 2116 2232 2391 2550 2677 2741 2750 2732 2677 2623 2586 2560 2529 2507 2483 2532 2572 2562 2514 2440 2352 2250 2116 1924 1841 1798
6 8 2 4 8 4 0 10 17 6 1 64 137 0 0 0 0 0 28 2 0 0 0 494 1642 2304 2386 2330 2142 1958 1952 1868 1941 2174 2259 2318 2258 2001 1953 1972 1482 694 665 687 771 864 919 959 993 1080 1267 1428 1507 1615 1894 2150 2223 2230 2232 2242 2283 2334 2451 2629 2767 2861 2900 2906 2874 2818 2768 2719 2680 2646 2706 2744 2748 2729 2696 2652 2690 2718 2700 2588 2368 2144
3 10 2 11 14 24 0 28 7 12 6 70 158 54 19 0 0 0 69 74 0 0 436 1273 2168 2423 2414 2236 2138 1966 1784 1715 1908 2023 2256 2334 2471 2511 2532 2467 2408 2320 2254 2122 1890 1799 1454 1372 1369 1621 2110 1750 1686 1804 2075 2518 2675 2625 2562 2545 2525 2525 2556 2695 2868 2996 3081 3108 3095 3054 2980 2907 2866 2885 2915 2922 2914 2898 2882 2915 3019 3103 3137 3093 2979 2802
1 12 10 11 24 31 5 34 11 4 6 33 158 101 34 0 0 0 10 168 249 426 875 1734 2298 2152 2025 1931 1911 1660 1545 1574 1915 2010 2376 2404 2473 2631 2762 2861 2906 3048 3155 3098 2907 2689 2620 2685 2900 3113 2698 2650 2514 2418 2473 2871 3030 2977 2926 2876 2817 2776 2756 2783 2925 3073 3210 3308 3315 3334 3272 3178 3111 3098 3109 3105 3090 3075 3067 3163 3270 3364 3390 3376 3312 3193
1 12 15 14 33 33 22 32 15 2 6 18 166 151 71 0 0 1 138 274 491 847 1374 1887 2104 1972 1808 1776 1898 1676 1709 1692 1939 2054 2214 2333 2355 2558 2959 3198 3245 3191 3161 3194 3285 3291 3214 3174 3186 3192 3167 3152 3078 3036 2915 3034 3213 3250 3244 3159 3077 3019 2983 2972 3010 3104 3274 3418 3479 3525 3536 3488 3434 3375 3341 3321 3265 3248 3292 3382 3470 3534 3560 3568 3519 3448
4 13 19 14 38 32 20 29 21 2 5 4 2 95 36 0 95 0 248 374 693 1192 1536 1821 1922 1893 2048 1973 1905 1799 1735 1705 1642 2101 2280 2363 2383 2370 2661 3036 3183 3141 3124 3195 3276 3329 3372 3383 3423 3511 3609 3692 3681 3399 3372 3330 3406 3481 3460 3455 3396 3344 3281 3236 3190 3135 3092 3202 3378 3669 3700 3715 3697 3658 3603 3544 3452 3463 3502 3556 3630 3689 3712 3714 3685 3633
1 8 22 40 29 34 19 24 16 2 33 10 27 46 148 104 149 252 269 909 914 1204 1556 1611 1669 1816 1767 1702 1629 1617 1628 1563 1527 1880 2197 2307 2342 2331 2384 2562 2750 2830 2870 2884 3022 3241 3378 3412 3427 3508 3645 3750 3769 3780 3648 3711 3668 3681 3665 3626 3622 3609 3552 3552 3548 3559 3616 3626 3661 3667 3710 3844 3839 3817 3766 3719 3676 3625 3659 3726 3772 3791 3818 3824 3802 3766
1 4 24 45 31 28 14 32 22 8 13 17 66 116 223 233 179 384 645 706 1043 1272 1453 1582 1686 1713 1629 1491 1439 1407 1353 1434 1489 1612 1846 2120 2332 2323 2467 2583 2879 3078 3068 3063 3316 3154 3417 3641 3631 3700 3726 3637 3641 3710 3772 3823 3825 3809 3818 3794 3889 3790 3753 3726 3769 3817 3821 3861 3868 3855 3857 3835 3931 3932 3916 3873 3844 3846 3845 3856 3870 3883 3914 3903 3886 3858
12 0 28 36 14 1 10 40 16 27 3 0 8 48 155 205 66 229 560 825 979 1316 1507 1591 1653 1575 1479 1430 1413 1471 1660 1698 1571 1477 1724 1937 2134 2305 2480 2605 2757 2963 3139 3225 3147 2989 2872 2946 3176 3389 3446 3569 3513 3583 3701 3772 3886 3866 3817 3852 3945 3844 3880 3850 3894 3954 4007 4035 4053 4040 4046 4037 4003 3964 3936 3994 3985 3938 3966 3976 3994 4010 3995 3991 3978 3935
4 4 16 37 30 5 3 33 22 16 1 7 45 19 47 84 228 433 445 883 1019 1029 1409 1411 1438 1369 1378 1532 1749 1837 1760 1736 1595 1430 1336 1546 1775 1998 2305 2460 2602 2840 3053 3188 3211 3114 2990 2933 2946 3030 3120 3221 3372 3491 3504 3570 3589 3648 3734 3966 4276 4494 4380 4086 3898 3724 3737 3744 3860 4027 4113 4139 4124 4099 4074 4052 4041 4059 4096 4105 4112 4088 4073 4066 4028 3996
0 3 8 28 12 3 25 7 10 1 5 4 45 91 78 83 270 355 377 658 888 989 1073 1128 1081 1161 1217 1451 1705 1842 1886 1652 1571 1383 1312 1084 1270 1497 1898 2198 2403 2562 2689 2844 2980 2984 2907 2894 2844 2746 2696 2798 2870 3021 3260 3374 3594 3583 3620 3863 4118 4512 4817 4687 4479 4087 3822 3710 3648 3663 3830 3962 4038 4054 4085 4111 4130 4164 4183 4188 4177 4176 4164 4126 4092 4064
0 6 0 6 26 7 6 6 24 0 10 48 62 70 85 135 93 306 276 300 554 522 874 882 893 978 1056 1063 1255 1584 1731 1663 1440 1283 1212 1076 1003 1078 1336 1723 2011 2267 2350 2379 2438 2550 2721 2721 2640 2509 2427 2466 2557 2630 2778 2934 3155 3471 3854 3941 4140 4276 4664 4847 4728 4679 4210 3803 3590 3580 3651 3971 4113 4161 4177 4199 4207 4214 4225 4240 4237 4239 4225 4173 4149 4093
0 0 0 10 27 0 10 0 0 0 0 54 14 6 8 27 129 228 398 310 344 481 733 743 829 797 850 1045 1149 1314 1344 1414 1356 1226 1047 951 964 1022 1040 1406 1840 2191 2355 2378 2366 2426 2349 2320 2258 2286 2366 2389 2411 2498 2596 2714 2844 3040 3676 4114 4146 4196 4514 4910 4943 4764 4666 4393 3919 3628 3560 3944 4175 4293 4310 4302 4314 4311 4311 4300 4301 4288 4251 4214 4169 4121
0 0 0 0 8 0 0 0 0 0 0 0 0 0 0 9 0 1 141 360 350 147 352 534 549 571 641 806 971 1044 1096 1213 1180 1104 932 729 857 861 973 1030 1271 1867 2263 2378 2373 2309 2219 2196 2202 2158 2135 2077 2041 2203 2381 2450 2502 2706 3013 3751 4173 4235 4336 4689 4992 4894 4695 4557 4426 4129 3710 3883 4515 4550 4470 4493 4496 4496 4459 4434 4397 4352 4333 4282 4228 4207
0 0 6 0 12 0 0 0 0 0 0 0 0 0 0 0 0 0 0 2 6 226 299 358 281 336 406 545 769 773 917 1037 942 870 718 500 622 605 602 790 817 1114 1777 2132 2316 2302 2228 2071 2136 2132 2100 1975 1922 1988 2139 2243 2328 2435 2602 2905 3548 4025 4328 4538 4820 5034 4792 4468 4234 4243 4107 3901 4363 4556 4593 4636 4688 4707 4674 4648 4542 4532 4502 4449 4417 4382
1 0 0 0 23 9 0 0 0 1 0 0 0 0 0 0 0 0 0 0 0 1 116 346 289 262 253 484 524 587 659 686 886 638 451 310 344 353 299 204 240 677 897 1626 2038 2214 2187 2076 1974 1963 1949 1950 1912 1924 2005 2098 2136 2218 2336 2657 2986 3392 3850 4461 4710 4947 4940 4633 4367 4137 4034 4082 4535 4586 4564 4552 4617 4642 4710 4736 4768 4760 4679 4713 4676 4636
0 3 2 2 3 18 0 0 0 0 0 0 0 0 0 0 0 0 1 0 1 0 7 20 252 275 338 390 327 395 319 340 705 659 447 215 110 75 69 50 40 200 585 930 1652 1947 2004 1975 1918 1876 2012 2010 1910 1834 1872 2012 2070 2089 2241 2516 2637 2839 3226 3877 4537 4857 5021 4891 4706 4397 4208 4348 4564 4554 4523 4537 4513 4543 4603 4554 4712 4865 4930 4936 4942 4980
Wind_Speed
nan nan nan nan nan nan nan nan nan nan nan nan nan nan nan nan nan nan nan nan nan nan nan nan nan nan nan 6 2 2 2 3 9 12 9 6 4 10 13 14 15 16 17 16 19 18 17 13 7 3 1 1 1 2 2 3 3 5 5 6 5 7 7 7 7 6 5 3 4 6 6 8 8 8 9 9 10 10 10 10 10 11 11 11 10 10
nan nan nan nan nan nan nan nan nan nan nan nan nan nan nan nan nan nan nan nan nan nan nan nan 18 nan nan 8 6 5 1 8 11 11 10 10 7 10 15 15 16 16 8 10 14 16 16 13 11 6 1 1 2 2 2 2 2 4 5 5 6 8 7 6 6 7 6 5 4 3 5 7 7 7 7 8 8 8 9 9 10 11 12 12 11 10
nan nan nan nan nan nan nan nan nan nan nan nan nan nan nan nan nan nan nan nan nan nan nan nan nan nan nan nan 10 5 4 10 11 11 12 13 10 8 13 15 16 13 11 11 13 14 16 17 14 8 4 1 3 3 2 2 3 3 4 5 6 7 6 7 7 7 6 6 5 4 5 5 6 8 8 7 7 7 7 9 11 12 12 12 11 10
nan nan nan nan nan nan nan nan nan nan nan nan nan nan nan nan nan nan nan nan nan nan nan nan nan nan nan nan 12 4 5 8 9 8 8 10 11 12 15 17 17 17 15 15 15 15 14 17 15 12 8 4 3 4 4 2 1 2 4 5 5 5 6 7 6 6 6 5 5 6 6 5 5 5 7 7 6 7 6 9 11 12 12 11 11 10
nan nan nan nan nan nan nan nan nan nan nan nan nan nan nan nan nan nan nan nan nan nan nan nan nan nan nan nan nan nan 12 10 8 4 4 3 4 9 10 12 14 18 17 16 14 14 13 15 17 16 12 8 5 4 4 3 2 5 2 4 5 6 6 7 6 4 5 5 5 5 7 6 6 7 5 6 8 7 7 8 10 12 10 10 10 9
nan nan nan nan nan nan nan nan nan nan nan nan nan nan nan nan nan nan nan nan nan nan nan nan nan nan nan nan nan nan nan 14 10 7 4 1 3 5 3 11 12 12 13 16 18 18 17 15 13 12 12 11 6 4 4 5 4 4 5 5 6 8 8 7 6 4 4 3 2 3 3 3 5 6 6 6 7 6 6 8 8 9 9 8 9 8
nan nan nan nan nan nan nan nan nan nan nan nan nan nan nan nan nan nan nan nan nan nan nan nan nan nan nan nan nan nan nan nan nan 6 2 3 7 6 4 7 10 12 12 13 13 12 12 12 12 13 13 13 10 5 5 6 5 4 5 5 5 7 7 8 7 4 3 3 4 3 3 3 2 4 7 7 7 6 5 5 5 7 7 7 8 8
nan nan nan nan nan nan nan nan nan nan nan nan nan nan nan nan nan nan nan nan nan nan nan nan nan nan nan nan nan nan nan nan nan nan 3 6 8 6 4 5 7 9 11 13 15 14 13 12 12 14 14 11 10 5 5 5 6 5 5 4 5 7 7 7 7 4 2 2 4 4 3 3 3 6 7 6 7 6 4 3 5 5 6 7 8 9
nan nan nan nan nan nan nan nan nan nan nan nan nan nan nan nan nan nan nan nan nan nan nan nan nan nan nan nan nan nan nan nan nan nan nan 3 5 7 6 3 6 7 10 11 12 14 14 12 12 12 12 12 9 5 3 5 6 7 7 6 5 5 5 5 6 4 2 3 5 5 4 2 4 6 8 8 7 5 3 3 5 5 6 7 9 10
nan nan nan nan nan nan nan nan nan nan nan nan nan nan nan nan nan nan nan nan nan nan nan nan nan nan nan nan nan nan nan nan nan nan nan nan nan 7 6 4 4 3 3 6 10 12 13 11 11 13 13 10 8 5 4 5 8 8 8 6 5 4 4 4 4 4 3 3 6 5 4 1 2 6 9 8 5 5 4 4 5 4 5 8 9 11
nan nan nan nan nan nan nan nan nan nan nan nan nan nan nan nan nan nan nan nan nan nan nan nan nan nan nan nan nan nan nan nan nan nan nan nan nan 4 6 5 1 2 4 4 5 7 10 10 11 11 12 11 8 5 6 6 7 8 8 6 5 3 4 3 3 4 4 4 5 4 3 2 1 4 7 7 7 7 8 7 6 5 6 7 9 9
nan nan nan nan nan nan nan nan nan nan nan nan nan nan nan nan nan nan nan nan nan nan nan nan nan nan nan nan nan nan nan nan nan nan nan nan nan nan 5 2 2 2 3 3 4 5 7 7 9 10 12 12 10 7 6 6 7 7 8 8 5 3 2 3 2 3 3 4 4 3 2 1 2 4 5 4 6 7 8 9 8 7 6 8 8 8
nan nan nan nan nan nan nan nan nan nan nan nan nan nan nan nan nan nan nan nan nan nan nan nan nan nan nan nan nan nan nan nan nan nan nan nan nan nan nan 5 2 2 3 6 6 5 6 7 11 11 11 11 11 9 7 6 7 7 7 7 5 2 1 2 2 2 2 3 3 3 1 2 4 5 4 4 6 7 9 9 9 8 8 7 6 8
nan nan nan nan nan nan nan nan nan nan nan nan nan nan nan nan nan nan nan nan nan nan nan nan nan nan nan nan nan nan nan nan nan nan nan nan nan nan nan 7 3 2 4 7 8 7 5 5 9 11 11 12 10 9 8 6 7 8 7 6 5 2 2 3 2 1 2 1 2 2 1 3 6 6 5 5 7 8 10 9 9 9 8 7 7 7
nan nan nan nan nan nan nan nan nan nan nan nan nan nan nan nan nan nan nan nan nan nan nan nan nan nan nan nan nan nan nan nan nan nan nan nan nan nan nan nan nan 3 4 6 9 6 3 5 9 9 10 11 10 10 8 6 6 8 7 6 4 3 2 1 0 2 1 3 3 3 4 5 8 7 8 8 8 9 9 9 9 10 9 7 7 7
nan nan nan nan nan nan nan nan nan nan nan nan nan nan nan nan nan nan nan nan nan nan nan nan nan nan nan nan nan nan nan nan nan nan nan nan nan nan nan nan nan 3 5 8 7 2 1 2 5 6 7 9 9 11 9 7 6 6 6 5 4 3 1 2 1 2 2 4 6 5 6 7 8 9 10 10 10 10 9 9 8 8 8 8 7 5
nan nan nan nan nan nan nan nan nan nan nan nan nan nan nan nan nan nan nan nan nan nan nan nan nan nan nan nan nan nan nan nan nan nan nan nan nan nan nan nan nan 5 9 10 6 3 2 2 3 6 8 8 10 10 10 9 7 5 5 5 4 3 3 2 2 3 5 6 6 6 7 9 9 8 8 8 7 8 9 9 9 8 7 7 5 3
nan nan nan nan nan nan nan nan nan nan nan nan nan nan nan nan nan nan nan nan nan nan nan nan nan nan nan nan nan nan nan nan nan nan nan nan nan nan nan nan nan 4 7 7 4 1 1 2 4 4 5 9 11 11 10 9 7 5 5 4 4 3 2 3 3 5 6 6 6 7 7 9 9 9 9 10 9 10 10 10 10 9 7 5 4 3
nan nan nan nan nan nan nan nan nan nan nan nan nan nan nan nan nan nan nan nan nan nan nan nan nan nan nan nan nan nan nan nan nan nan nan nan nan nan nan nan nan 3 7 8 6 8 8 6 4 3 6 9 10 10 9 8 7 6 4 3 3 2 2 4 7 7 8 6 8 10 9 9 11 11 11 12 11 11 10 8 8 7 6 7 6 5
nan nan nan nan nan nan nan nan nan nan nan nan nan nan nan nan nan nan nan nan nan nan nan nan nan nan nan nan nan nan nan nan nan nan nan nan nan nan nan nan 6 1 4 5 6 7 7 4 3 3 6 9 10 9 7 7 6 6 4 3 2 3 6 7 5 6 6 6 8 10 11 12 12 12 12 12 11 10 9 9 8 8 8 6 6 5
nan nan nan nan nan nan nan nan nan nan nan nan nan nan nan nan nan nan nan nan nan nan nan nan nan nan nan nan nan nan nan nan nan nan nan nan nan nan nan nan nan 8 5 6 8 10 8 6 5 3 3 5 8 8 6 4 5 5 5 2 2 4 5 5 4 4 6 7 7 9 9 11 12 12 13 13 11 10 10 10 9 8 8 10 7 6
nan nan nan nan nan nan nan nan nan nan nan nan nan nan nan nan nan nan nan nan nan nan nan nan nan nan nan nan nan nan nan nan nan nan nan nan nan nan nan nan 15 13 9 9 9 10 11 10 7 5 6 8 9 9 6 4 5 5 4 3 3 4 4 4 4 5 6 8 8 7 9 10 12 13 14 12 12 11 11 10 10 9 11 8 7 7
nan nan nan nan nan nan nan nan nan nan nan nan nan nan nan nan nan nan nan nan nan nan nan nan nan nan nan nan nan nan nan nan nan nan nan nan nan nan nan nan 12 13 13 10 8 9 12 12 9 9 8 8 8 9 7 5 5 4 3 4 4 2 1 3 4 6 8 8 7 7 9 10 12 12 11 10 11 11 10 11 10 11 9 9 9 9
nan nan nan nan nan nan nan nan nan nan nan nan nan nan nan nan nan nan nan nan nan nan nan nan nan nan nan nan nan nan nan nan nan nan nan nan nan nan nan nan 10 10 11 11 8 9 13 15 15 15 11 9 9 10 6 3 5 6 4 4 4 1 2 5 7 8 9 8 8 7 8 9 11 10 9 8 10 10 10 11 11 10 10 10 10 8
nan nan nan nan nan nan nan nan nan nan nan nan nan nan nan nan nan nan nan nan nan nan nan nan nan nan nan nan nan nan nan nan nan nan nan nan nan nan nan nan 12 10 13 15 12 12 18 21 19 15 10 9 9 8 6 5 5 6 5 4 4 4 4 6 8 8 8 8 7 8 8 8 9 8 7 8 10 9 10 9 10 11 10 10 8 6
nan nan nan nan nan nan nan nan nan nan nan nan nan nan nan nan nan nan nan nan nan nan nan nan nan nan nan nan nan nan nan nan nan nan nan nan nan nan nan nan 14 15 15 19 17 17 19 20 18 15 11 10 10 8 6 5 6 6 5 3 5 7 8 8 9 8 8 8 8 8 7 8 9 8 8 8 9 9 9 9 9 10 9 8 5 5
nan nan nan nan nan nan nan nan nan nan nan nan nan nan nan nan nan nan nan nan nan nan nan nan nan nan nan nan nan nan nan nan nan nan nan nan nan nan nan 12 17 20 21 23 22 20 21 22 19 15 11 9 8 7 6 6 6 6 6 6 8 9 9 9 9 8 8 8 7 8 6 6 7 8 9 9 10 10 10 9 8 8 7 7 5 4
nan nan nan nan nan nan nan nan nan nan nan nan nan nan nan nan nan nan nan nan nan nan nan nan nan nan nan nan nan nan nan nan nan nan nan nan nan nan 11 14 18 20 24 27 27 25 22 20 20 18 12 9 8 8 8 7 6 5 5 6 8 9 10 11 10 10 9 9 8 7 7 8 10 11 11 12 12 11 9 9 9 8 8 8 5 4
nan nan nan nan nan nan nan nan nan nan nan nan nan nan nan nan nan nan nan nan nan nan nan nan nan nan nan nan nan nan nan nan nan nan nan nan nan nan 15 15 14 15 22 25 25 24 22 21 21 17 13 10 9 9 9 9 8 7 8 10 10 10 9 10 10 9 9 8 8 9 11 13 14 14 13 12 12 10 10 10 10 10 9 8 7 7
nan nan nan nan nan nan nan nan nan nan nan nan nan nan nan nan nan nan nan nan nan nan nan nan nan nan nan nan nan nan nan nan nan nan nan nan nan nan 15 14 10 12 17 21 23 22 21 20 19 15 13 11 9 9 10 10 8 4 3 5 6 7 10 12 10 10 9 8 9 11 12 12 13 13 12 11 9 9 10 11 11 10 9 9 8 8
nan nan nan nan nan nan nan nan nan nan nan nan nan nan nan nan nan nan nan nan nan nan nan nan nan nan nan nan nan nan nan nan nan nan nan nan nan nan nan 9 6 8 12 17 20 22 22 21 17 16 15 12 9 9 9 9 7 4 2 4 6 7 9 10 10 9 9 9 11 12 13 13 12 12 10 9 10 10 10 10 11 11 10 10 9 8
nan nan nan nan nan nan nan nan nan nan nan nan nan nan nan nan nan nan nan nan nan nan nan nan nan nan nan nan nan nan nan nan nan nan nan nan nan nan nan 5 4 6 10 14 18 23 25 23 22 20 16 13 11 10 11 11 10 7 4 4 4 6 9 8 9 8 9 10 12 12 11 11 11 10 9 10 9 9 10 11 11 10 10 10 9 9
nan nan nan nan nan nan nan nan nan nan nan nan nan nan nan nan nan nan nan nan nan nan nan nan nan nan nan nan nan nan 41 40 36 34 nan nan nan nan nan 4 3 5 8 13 19 22 23 22 20 18 15 14 13 11 10 11 10 6 6 6 6 8 8 8 8 9 9 9 9 8 7 8 7 6 6 6 7 8 10 9 8 8 10 9 10 12
nan nan nan nan nan nan nan nan nan nan nan nan 57 nan nan nan nan nan nan nan nan nan nan nan nan nan nan nan nan 36 42 39 32 34 32 29 nan nan nan nan 7 6 9 13 18 20 21 23 24 21 16 14 13 11 12 12 9 7 7 8 9 7 9 9 10 9 8 7 7 6 5 5 4 3 3 4 4 5 5 5 5 7 9 10 11 10
nan nan nan nan nan nan nan nan nan nan nan nan nan nan nan nan nan nan nan nan nan nan nan nan nan 41 45 47 45 40 39 39 43 46 47 43 34 28 22 19 16 14 14 18 21 22 22 23 23 23 22 20 18 20 20 18 17 19 19 16 11 9 10 10 10 9 8 7 6 6 5 4 4 3 2 1 1 1 0 1 2 5 7 8 8 8
nan nan nan nan nan nan nan nan nan nan nan nan 63 nan nan nan nan nan nan nan nan nan nan 46 43 43 43 45 47 45 42 45 49 51 50 47 42 32 28 23 21 21 22 24 26 27 26 25 23 20 19 23 26 26 23 21 23 22 19 18 14 13 12 11 11 10 10 9 7 6 5 4 4 3 2 1 1 1 2 1 2 3 4 5 6 7
nan nan nan nan nan nan nan nan nan nan nan nan 63 nan nan nan nan nan nan nan nan nan 56 49 46 47 48 45 46 44 45 51 53 51 51 48 44 39 33 27 26 25 27 29 30 30 30 30 31 31 33 32 30 28 26 28 26 24 23 21 18 16 15 13 12 11 11 10 8 7 6 5 4 3 3 3 2 1 1 1 2 2 5 4 4 6
nan nan nan nan nan nan nan nan nan nan nan nan 62 64 nan nan nan nan nan 53 62 65 59 53 50 50 53 52 50 45 47 54 53 51 50 50 46 42 37 34 32 31 30 30 32 33 33 33 33 33 34 35 35 33 33 31 29 27 25 21 21 20 18 15 12 12 12 11 11 10 9 7 6 5 5 5 5 4 4 4 4 5 8 7 6 6
nan nan nan nan nan nan nan nan nan nan nan nan 70 69 nan nan nan nan 49 55 60 66 64 57 55 55 54 54 50 49 41 50 47 51 48 48 47 43 39 37 37 35 33 32 31 32 34 36 37 38 41 42 42 38 33 31 29 27 24 22 22 21 19 16 15 15 14 14 14 12 11 10 8 7 8 8 8 8 8 7 8 8 10 10 9 8
nan nan nan nan nan nan nan nan nan nan nan nan nan nan nan nan nan nan 55 56 59 64 65 61 59 59 59 58 55 53 47 44 42 44 44 45 45 42 42 41 40 39 37 33 32 30 29 32 40 44 45 47 44 43 40 36 32 28 26 25 25 23 20 18 18 18 19 18 16 14 13 13 12 11 11 11 11 12 11 11 11 11 12 12 12 11
nan nan nan nan nan nan nan nan nan nan nan nan nan nan 69 72 62 61 61 57 58 62 65 63 62 61 59 59 55 52 50 45 42 40 43 44 45 46 43 42 40 40 40 37 34 30 31 32 36 38 41 42 44 45 46 44 42 39 37 34 30 24 25 28 28 26 24 21 20 18 17 17 16 14 14 15 14 14 15 15 15 14 14 14 14 13
nan nan nan nan nan nan nan nan nan nan nan nan nan 69 68 68 69 67 64 60 58 64 66 66 64 64 60 60 56 53 49 48 46 45 47 48 46 43 43 42 43 43 41 40 38 34 32 32 32 34 37 40 45 48 48 48 48 45 45 42 38 37 37 35 33 32 31 29 25 23 21 20 20 18 19 19 20 19 18 18 18 17 17 17 16 14
nan nan nan nan nan nan nan nan nan nan nan nan nan nan 74 70 nan 70 66 63 61 66 69 70 67 63 60 59 58 55 52 51 51 51 51 50 48 46 44 43 45 44 42 42 41 36 34 34 34 33 32 35 42 46 49 51 51 48 47 48 43 41 39 36 35 33 31 31 29 28 25 24 22 23 24 23 23 22 21 21 21 21 21 20 18 16
nan nan nan nan nan nan nan nan nan nan nan nan nan nan nan nan 68 72 72 67 65 69 72 72 69 66 62 58 58 57 57 56 58 57 55 53 49 47 45 44 44 44 43 41 39 36 36 36 33 32 32 34 38 42 46 50 50 50 51 49 44 42 39 37 37 36 34 32 30 29 28 27 26 26 26 25 26 25 24 25 24 25 25 24 22 20
nan nan nan nan nan nan nan nan nan nan nan nan nan nan nan nan 70 79 76 69 69 74 76 74 74 71 68 62 60 61 62 61 60 59 56 52 49 48 47 44 42 43 42 40 39 38 38 37 33 31 32 34 37 39 42 44 47 49 51 47 45 46 44 40 38 37 35 34 33 32 31 31 30 28 28 28 28 28 28 28 29 28 29 29 27 24
nan nan nan nan nan nan nan nan nan nan nan nan nan nan nan 66 nan 79 79 69 69 71 76 78 76 73 73 70 65 67 66 62 62 59 55 52 51 49 48 47 45 43 43 41 40 39 38 38 35 32 31 33 35 36 36 38 41 43 41 41 44 45 46 44 41 39 36 36 36 35 36 34 32 31 31 32 32 31 31 31 32 31 32 31 30 28
nan nan nan nan nan nan nan nan nan nan nan nan nan nan nan nan 67 72 79 75 72 73 76 81 80 74 74 74 71 68 68 66 64 59 52 51 53 52 51 49 47 45 43 42 40 38 39 39 37 35 33 34 33 33 33 33 35 35 35 39 41 43 46 46 44 42 41 40 39 40 39 36 36 36 36 37 37 36 35 35 34 34 34 33 32 32
nan nan nan nan nan nan nan nan nan nan nan nan nan nan nan nan nan nan 80 79 71 72 76 79 82 79 76 76 74 72 70 67 65 62 57 53 54 53 53 52 50 48 46 43 42 40 39 39 38 36 35 34 32 31 31 31 32 32 33 35 37 40 44 47 45 43 42 41 42 41 40 38 37 39 39 39 39 37 37 37 37 35 34 34 35 35
nan nan nan nan nan nan nan nan nan nan nan nan nan nan nan nan nan nan nan nan nan 75 78 82 85 82 78 77 75 75 73 69 65 64 62 59 57 57 54 53 52 49 46 46 43 41 40 38 38 36 36 35 33 34 33 31 30 29 30 30 32 35 40 43 44 43 43 43 42 41 41 39 39 38 40 43 45 44 43 41 40 41 41 43 42 37
nan nan nan nan nan nan nan nan nan nan nan nan nan nan nan nan nan nan nan nan nan nan 74 83 87 84 80 78 77 76 76 70 67 66 66 62 60 60 58 55 53 51 49 46 43 41 40 39 38 38 38 38 38 38 38 35 32 30 29 29 29 31 35 37 38 39 39 41 40 40 39 38 36 37 36 36 37 38 41 44 44 41 38 39 40 41
nan nan nan nan nan nan nan nan nan nan nan nan nan nan nan nan nan nan nan nan nan nan nan nan 85 87 83 81 78 78 78 72 67 68 68 65 62 nan nan nan nan 52 50 49 47 45 42 40 39 39 40 40 40 40 38 37 34 33 31 30 29 30 31 32 32 32 33 34 33 33 32 32 32 32 32 32 32 34 36 36 40 46 44 40 40 41
Wind_Direction
nan nan nan nan nan nan nan nan nan nan nan nan nan nan nan nan nan nan nan nan nan nan nan nan nan nan nan 240 245 290 278 343 328 320 320 331 15 56 46 31 26 22 22 15 14 13 11 8 359 339 249 181 271 235 242 243 217 208 215 222 211 199 192 176 164 150 140 127 131 128 107 99 104 99 95 96 98 94 88 81 76 74 78 84 88 91
nan nan nan nan nan nan nan nan nan nan nan nan nan nan nan nan nan nan nan nan nan nan nan nan 238 nan nan 243 248 226 275 36 9 339 329 333 3 56 44 31 30 31 29 13 18 15 10 11 7 351 303 263 308 243 259 282 250 214 215 218 216 209 194 170 161 161 152 146 134 123 107 111 117 114 101 98 105 98 94 84 80 80 82 83 87 92
nan nan nan nan nan nan nan nan nan nan nan nan nan nan nan nan nan nan nan nan nan nan nan nan nan nan nan nan 238 246 43 57 31 354 338 333 351 46 46 35 31 25 24 22 24 16 14 11 8 4 357 333 316 287 275 235 239 232 215 215 222 208 201 181 174 175 160 163 158 141 133 105 128 131 124 120 116 113 95 88 89 87 85 84 89 92
nan nan nan nan nan nan nan nan nan nan nan nan nan nan nan nan nan nan nan nan nan nan nan nan nan nan nan nan 228 190 83 102 72 29 332 327 347 20 30 28 24 20 13 17 21 22 17 16 11 7 5 355 309 284 268 244 314 232 226 227 231 217 209 198 187 179 176 174 165 161 169 148 131 134 133 134 132 114 104 90 93 97 93 88 86 87
nan nan nan nan nan nan nan nan nan nan nan nan nan nan nan nan nan nan nan nan nan nan nan nan nan nan nan nan nan nan 137 150 131 137 217 241 2 10 32 35 23 18 12 9 15 22 22 20 19 11 6 355 344 312 295 279 228 191 255 250 250 228 221 207 207 207 204 191 181 182 189 179 166 166 137 138 135 117 102 104 103 93 97 93 88 85
nan nan nan nan nan nan nan nan nan nan nan nan nan nan nan nan nan nan nan nan nan nan nan nan nan nan nan nan nan nan nan 153 166 195 203 236 242 234 69 42 26 30 20 6 7 13 19 24 21 13 2 6 5 333 292 275 255 211 200 223 236 226 222 222 224 236 221 172 166 181 172 165 147 139 143 111 101 117 100 86 105 106 91 88 90 90
nan nan nan nan nan nan nan nan nan nan nan nan nan nan nan nan nan nan nan nan nan nan nan nan nan nan nan nan nan nan nan nan nan 184 147 242 250 274 36 39 18 23 28 18 12 9 12 21 22 20 12 11 10 353 279 264 266 258 225 216 239 236 228 235 238 250 207 184 179 168 154 162 132 97 112 106 102 103 123 146 116 99 93 85 78 85
nan nan nan nan nan nan nan nan nan nan nan nan nan nan nan nan nan nan nan nan nan nan nan nan nan nan nan nan nan nan nan nan nan nan 152 229 252 302 350 41 23 23 28 14 10 4 6 12 17 23 21 14 17 349 291 272 261 276 265 246 241 230 233 239 249 257 212 195 210 216 200 186 113 75 86 90 102 142 163 124 111 104 84 80 79 74
nan nan nan nan nan nan nan nan nan nan nan nan nan nan nan nan nan nan nan nan nan nan nan nan nan nan nan nan nan nan nan nan nan nan nan 251 291 315 330 29 35 25 21 14 8 360 356 2 15 23 20 18 2 337 310 273 254 247 247 253 246 246 244 246 269 267 242 209 232 246 241 211 130 112 133 156 164 161 151 126 137 111 87 83 80 74
nan nan nan nan nan nan nan nan nan nan nan nan nan nan nan nan nan nan nan nan nan nan nan nan nan nan nan nan nan nan nan nan nan nan nan nan nan 350 352 15 30 18 1 22 20 359 349 353 11 21 18 3 355 331 291 261 246 244 238 243 260 261 241 250 283 279 275 250 247 256 258 316 136 153 168 177 156 143 138 114 119 114 99 90 84 77
nan nan nan nan nan nan nan nan nan nan nan nan nan nan nan nan nan nan nan nan nan nan nan nan nan nan nan nan nan nan nan nan nan nan nan nan nan 63 44 19 325 328 345 5 10 352 344 345 8 16 11 6 353 321 292 271 263 255 250 247 257 270 241 257 290 289 294 267 261 267 289 358 106 170 184 175 152 150 149 129 130 116 99 99 85 79
nan nan nan nan nan nan nan nan nan nan nan nan nan nan nan nan nan nan nan nan nan nan nan nan nan nan nan nan nan nan nan nan nan nan nan nan nan nan 57 101 207 318 325 314 294 326 329 331 7 12 13 6 356 332 311 276 267 265 259 253 257 231 246 255 281 286 283 271 279 277 309 53 142 192 181 148 131 132 127 127 127 129 128 110 100 90
nan nan nan nan nan nan nan nan nan nan nan nan nan nan nan nan nan nan nan nan nan nan nan nan nan nan nan nan nan nan nan nan nan nan nan nan nan nan nan 23 279 289 283 267 275 292 306 344 2 7 12 9 359 352 334 300 270 261 260 266 268 230 212 243 277 290 281 269 273 285 342 108 179 191 170 143 131 131 125 129 137 143 124 125 112 92
nan nan nan nan nan nan nan nan nan nan nan nan nan nan nan nan nan nan nan nan nan nan nan nan nan nan nan nan nan nan nan nan nan nan nan nan nan nan nan 10 346 308 267 271 277 282 304 347 360 0 7 14 7 353 340 313 279 258 250 265 272 253 193 193 225 276 254 256 260 264 157 160 190 187 170 151 132 133 137 140 132 126 118 111 89 78
nan nan nan nan nan nan nan nan nan nan nan nan nan nan nan nan nan nan nan nan nan nan nan nan nan nan nan nan nan nan nan nan nan nan nan nan nan nan nan nan nan 323 260 260 260 271 331 354 352 354 6 10 6 356 340 312 285 263 256 260 271 242 188 179 220 209 214 191 190 191 164 174 192 187 175 159 151 151 149 146 136 128 131 122 105 83
nan nan nan nan nan nan nan nan nan nan nan nan nan nan nan nan nan nan nan nan nan nan nan nan nan nan nan nan nan nan nan nan nan nan nan nan nan nan nan nan nan 267 236 235 244 240 110 328 330 350 2 3 358 354 344 325 284 267 264 266 278 279 214 160 192 199 206 193 189 182 173 176 193 189 180 173 165 162 162 153 143 136 130 122 116 113
nan nan nan nan nan nan nan nan nan nan nan nan nan nan nan nan nan nan nan nan nan nan nan nan nan nan nan nan nan nan nan nan nan nan nan nan nan nan nan nan nan 224 225 227 231 203 141 238 328 354 354 351 350 350 352 338 308 291 265 257 262 238 202 161 177 211 209 201 193 180 178 184 190 189 183 175 165 163 170 165 159 151 132 138 144 145
nan nan nan nan nan nan nan nan nan nan nan nan nan nan nan nan nan nan nan nan nan nan nan nan nan nan nan nan nan nan nan nan nan nan nan nan nan nan nan nan nan 203 232 246 255 196 195 308 344 330 328 346 350 349 348 343 314 275 258 266 268 229 193 170 195 216 216 207 194 190 184 185 186 183 179 181 180 182 180 173 172 173 170 146 157 186
nan nan nan nan nan nan nan nan nan nan nan nan nan nan nan nan nan nan nan nan nan nan nan nan nan nan nan nan nan nan nan nan nan nan nan nan nan nan nan nan nan 141 221 229 218 197 201 212 228 291 337 348 344 335 341 342 320 278 249 259 280 284 203 209 199 206 210 209 200 197 193 193 188 182 181 183 188 192 184 178 178 177 169 179 189 199
nan nan nan nan nan nan nan nan nan nan nan nan nan nan nan nan nan nan nan nan nan nan nan nan nan nan nan nan nan nan nan nan nan nan nan nan nan nan nan nan 341 259 212 237 239 225 225 242 275 320 332 337 336 325 325 339 326 308 277 266 261 234 222 220 207 208 211 207 206 205 204 198 192 186 184 186 193 193 190 188 188 185 190 184 199 200
nan nan nan nan nan nan nan nan nan nan nan nan nan nan nan nan nan nan nan nan nan nan nan nan nan nan nan nan nan nan nan nan nan nan nan nan nan nan nan nan nan 317 295 280 275 266 259 254 260 271 302 322 297 282 283 316 335 297 253 233 256 265 248 235 220 214 206 215 209 215 214 208 201 191 190 189 189 192 196 199 196 194 190 204 198 212
nan nan nan nan nan nan nan nan nan nan nan nan nan nan nan nan nan nan nan nan nan nan nan nan nan nan nan nan nan nan nan nan nan nan nan nan nan nan nan nan 306 304 304 297 295 281 260 253 257 245 242 249 262 268 295 320 309 291 266 230 225 236 234 241 218 201 212 215 213 216 214 213 209 203 198 191 188 190 197 199 198 197 204 202 203 221
nan nan nan nan nan nan nan nan nan nan nan nan nan nan nan nan nan nan nan nan nan nan nan nan nan nan nan nan nan nan nan nan nan nan nan nan nan nan nan nan 302 307 303 297 295 279 258 250 253 255 269 283 293 285 291 302 316 296 263 233 215 229 228 225 208 201 210 212 215 214 214 218 217 214 206 195 190 189 194 197 198 200 198 200 212 220
nan nan nan nan nan nan nan nan nan nan nan nan nan nan nan nan nan nan nan nan nan nan nan nan nan nan nan nan nan nan nan nan nan nan nan nan nan nan nan nan 277 279 287 287 275 254 248 243 239 239 244 252 257 258 269 284 292 274 244 217 201 154 221 215 202 199 200 200 204 213 215 215 217 220 213 199 194 193 195 198 200 201 198 205 213 222
nan nan nan nan nan nan nan nan nan nan nan nan nan nan nan nan nan nan nan nan nan nan nan nan nan nan nan nan nan nan nan nan nan nan nan nan nan nan nan nan 253 262 271 270 251 227 227 233 239 243 251 259 265 263 254 265 279 271 256 218 187 173 203 206 203 201 198 202 207 211 209 209 211 209 204 198 200 199 202 200 202 205 206 212 211 214
nan nan nan nan nan nan nan nan nan nan nan nan nan nan nan nan nan nan nan nan nan nan nan nan nan nan nan nan nan nan nan nan nan nan nan nan nan nan nan nan 236 240 247 259 255 231 228 235 243 246 245 243 253 253 243 259 270 259 242 217 193 196 202 201 204 200 203 207 211 210 209 203 201 196 195 198 202 205 208 208 209 213 213 220 218 223
nan nan nan nan nan nan nan nan nan nan nan nan nan nan nan nan nan nan nan nan nan nan nan nan nan nan nan nan nan nan nan nan nan nan nan nan nan nan nan 232 235 236 234 241 241 230 224 227 240 246 242 240 249 241 229 244 256 242 225 214 207 200 200 203 205 203 206 210 209 206 199 195 192 196 197 202 205 209 210 211 216 221 221 227 228 240
nan nan nan nan nan nan nan nan nan nan nan nan nan nan nan nan nan nan nan nan nan nan nan nan nan nan nan nan nan nan nan nan nan nan nan nan nan nan 230 232 237 235 224 222 223 225 224 228 235 238 233 227 224 219 215 219 220 219 223 221 212 207 203 200 202 202 204 206 199 189 182 184 193 199 204 206 209 209 207 208 213 216 216 223 230 238
nan nan nan nan nan nan nan nan nan nan nan nan nan nan nan nan nan nan nan nan nan nan nan nan nan nan nan nan nan nan nan nan nan nan nan nan nan nan 231 238 242 232 221 219 219 218 218 225 229 232 229 222 220 214 212 207 195 198 210 211 206 204 202 206 206 204 203 200 192 185 190 195 199 204 209 212 213 208 203 205 208 211 212 217 222 225
nan nan nan nan nan nan nan nan nan nan nan nan nan nan nan nan nan nan nan nan nan nan nan nan nan nan nan nan nan nan nan nan nan nan nan nan nan nan 231 230 236 227 223 226 223 216 217 227 230 229 230 221 218 215 210 198 186 187 237 229 219 209 205 209 203 203 201 195 192 196 199 203 207 212 217 217 215 210 207 207 209 210 213 218 223 227
nan nan nan nan nan nan nan nan nan nan nan nan nan nan nan nan nan nan nan nan nan nan nan nan nan nan nan nan nan nan nan nan nan nan nan nan nan nan nan 219 216 224 231 233 226 219 221 227 224 222 225 220 216 217 206 189 168 162 205 212 207 204 205 206 203 198 196 191 198 202 204 206 208 214 217 215 213 214 214 214 216 215 219 224 229 236
nan nan nan nan nan nan nan nan nan nan nan nan nan nan nan nan nan nan nan nan nan nan nan nan nan nan nan nan nan nan nan nan nan nan nan nan nan nan nan 200 207 221 236 235 229 224 224 224 218 216 217 210 207 208 196 185 178 173 135 135 152 186 197 193 193 188 183 188 200 204 206 205 209 209 208 213 210 215 218 220 222 225 229 235 241 247
nan nan nan nan nan nan nan nan nan nan nan nan nan nan nan nan nan nan nan nan nan nan nan nan nan nan nan nan nan nan 199 193 191 198 nan nan nan nan nan 248 275 276 264 240 229 228 229 228 224 221 215 207 203 198 189 190 182 143 122 119 142 176 166 161 166 165 166 180 192 195 195 195 197 192 198 205 211 217 224 229 234 241 246 252 253 252
nan nan nan nan nan nan nan nan nan nan nan nan 206 nan nan nan nan nan nan nan nan nan nan nan nan nan nan nan nan 199 206 203 195 200 209 214 nan nan nan nan 243 269 260 237 232 233 227 222 220 216 213 211 203 196 197 191 163 144 162 180 189 166 154 155 153 153 156 171 171 167 166 167 158 154 165 195 213 224 234 245 260 264 263 259 261 267
nan nan nan nan nan nan nan nan nan nan nan nan nan nan nan nan nan nan nan nan nan nan nan nan nan 197 199 193 191 204 215 215 209 207 209 212 218 219 219 222 220 219 225 220 216 215 216 223 225 218 211 206 199 196 199 187 176 189 198 201 194 174 166 159 157 157 163 168 160 157 159 157 146 138 154 175 215 219 92 333 276 283 276 274 277 274
nan nan nan nan nan nan nan nan nan nan nan nan 203 nan nan nan nan nan nan nan nan nan nan 192 189 192 201 199 193 195 207 218 215 209 211 215 217 217 222 220 219 224 223 212 211 209 212 213 217 217 210 205 203 201 200 194 196 202 201 201 197 192 185 178 169 166 174 177 176 171 174 181 172 164 180 205 213 74 70 53 350 329 293 280 274 264
nan nan nan nan nan nan nan nan nan nan nan nan 204 nan nan nan nan nan nan nan nan nan 193 189 188 191 196 198 196 194 194 209 214 212 209 215 218 217 221 220 223 225 224 216 212 209 210 211 208 203 200 200 201 204 203 204 206 206 206 204 199 201 199 192 181 179 184 185 192 196 199 207 209 210 230 246 260 293 303 303 322 299 272 279 281 276
nan nan nan nan nan nan nan nan nan nan nan nan 198 195 nan nan nan nan nan 197 198 195 191 189 190 191 196 197 196 193 187 207 208 212 208 214 218 219 217 219 220 220 221 222 215 210 210 210 208 203 203 202 202 204 206 208 210 210 208 202 202 205 202 198 189 192 196 196 204 210 213 218 230 240 254 260 275 285 283 285 279 287 277 283 281 279
nan nan nan nan nan nan nan nan nan nan nan nan 191 190 nan nan nan nan 194 201 197 193 189 187 190 193 197 198 198 204 207 212 207 209 208 212 218 218 219 217 219 219 217 216 219 217 212 211 212 208 204 204 204 200 208 213 215 214 209 204 204 205 202 195 196 201 204 208 213 217 223 229 238 246 257 267 272 273 281 286 288 285 279 281 280 276
nan nan nan nan nan nan nan nan nan nan nan nan nan nan nan nan nan nan 200 201 194 189 188 188 191 194 196 199 205 211 217 227 214 210 208 212 217 217 218 217 215 215 215 215 216 216 216 216 218 214 211 209 205 203 207 213 215 215 214 211 211 209 202 199 203 205 209 214 218 222 229 236 247 251 254 261 264 263 268 269 268 272 277 279 279 277
nan nan nan nan nan nan nan nan nan nan nan nan nan nan 186 187 193 202 204 198 190 189 189 191 193 193 196 203 204 214 214 216 216 214 213 214 217 216 215 213 212 209 211 213 218 218 222 219 218 217 214 210 209 209 212 215 215 212 212 213 212 208 206 206 208 210 211 214 218 222 229 234 243 253 254 257 261 263 263 264 267 272 277 279 277 279
nan nan nan nan nan nan nan nan nan nan nan nan nan 182 185 194 202 205 201 196 191 189 187 192 195 193 194 202 205 210 215 215 213 212 214 215 218 216 213 209 207 208 207 210 215 218 224 224 222 218 214 210 212 214 215 219 220 217 217 216 210 205 208 210 213 216 217 219 221 224 228 231 232 240 246 252 255 255 256 258 263 267 274 272 273 280
nan nan nan nan nan nan nan nan nan nan nan nan nan nan 191 196 nan 198 197 197 193 191 188 192 196 195 195 201 203 208 211 211 210 209 211 214 217 216 213 209 207 208 209 209 214 214 221 224 222 219 215 208 209 212 215 221 222 219 219 219 211 206 207 208 211 217 223 224 225 225 227 228 232 234 237 244 255 260 261 260 262 263 265 268 269 272
nan nan nan nan nan nan nan nan nan nan nan nan nan nan nan nan 189 194 197 195 194 192 190 192 196 197 197 200 203 208 211 209 209 208 210 213 216 217 216 214 210 210 212 211 213 214 216 221 219 218 214 209 207 208 211 217 220 219 219 216 210 209 210 209 211 216 218 222 226 227 226 228 230 232 233 240 247 253 257 260 261 261 262 264 265 264
nan nan nan nan nan nan nan nan nan nan nan nan nan nan nan nan 189 191 196 196 194 193 189 191 194 195 197 198 204 208 211 210 211 211 212 211 213 215 217 217 214 213 214 212 210 210 211 216 219 217 213 209 209 208 209 211 216 218 218 214 213 210 210 210 212 216 218 219 220 223 226 230 232 233 234 236 241 244 247 250 255 257 258 260 260 260
nan nan nan nan nan nan nan nan nan nan nan nan nan nan nan 189 nan 190 192 195 197 197 192 191 193 195 195 198 202 205 210 211 213 213 212 209 210 211 214 216 215 214 215 213 209 206 208 212 217 217 214 208 206 209 211 212 215 217 214 214 214 212 209 209 212 214 215 218 220 222 224 228 230 233 235 237 236 238 240 245 249 252 254 259 261 262
nan nan nan nan nan nan nan nan nan nan nan nan nan nan nan nan 193 191 190 191 197 201 196 189 192 196 196 197 201 204 207 208 210 212 213 209 207 209 211 215 215 215 216 213 207 208 210 213 217 217 214 210 203 204 206 211 214 216 214 214 213 213 211 211 214 214 215 217 218 221 224 228 230 231 233 235 235 236 237 240 243 246 250 254 258 260
nan nan nan nan nan nan nan nan nan nan nan nan nan nan nan nan nan nan 185 189 194 201 200 190 191 195 196 199 199 203 205 206 208 207 208 208 208 207 209 212 214 214 213 213 210 212 215 217 220 220 218 214 208 207 207 206 207 210 213 214 214 215 216 215 216 218 219 221 223 225 227 228 232 236 235 236 237 238 238 241 242 245 248 252 254 257
nan nan nan nan nan nan nan nan nan nan nan nan nan nan nan nan nan nan nan nan nan 198 198 192 192 194 196 199 200 203 205 204 204 204 203 203 207 210 210 212 214 216 214 211 210 215 219 219 223 224 224 220 215 214 212 209 206 206 210 212 216 218 219 219 219 220 221 225 228 229 230 232 234 237 240 237 236 235 234 234 237 240 242 243 245 250
nan nan nan nan nan nan nan nan nan nan nan nan nan nan nan nan nan nan nan nan nan nan 195 191 193 194 196 200 201 202 206 206 202 201 200 201 203 206 210 214 216 215 214 212 214 217 221 223 225 227 226 222 219 218 216 212 209 208 209 211 215 219 222 221 222 225 225 226 229 232 235 237 238 239 243 245 246 246 240 238 241 238 241 244 239 240
nan nan nan nan nan nan nan nan nan nan nan nan nan nan nan nan nan nan nan nan nan nan nan nan 191 196 198 199 202 204 204 206 202 199 198 200 201 nan nan nan nan 215 213 214 218 219 220 222 226 227 225 221 220 221 221 219 216 213 212 214 216 220 222 224 225 228 230 232 233 233 237 241 242 243 245 247 249 248 250 247 239 237 238 241 243 244